Regional Weather Roundup
Issued by NWS

Home | Current Version | Previous Version | Text Only | Print | Product List | Glossary Off
Versions: 1 2 3 4 5 6 7 8 9 10 11 12 13 14 15 16 17 18 19 20 21 22 23 24 25 26 27 28 29 30 31 32 33 34 35 36 37 38 39 40 41 42 43 44 45 46 47 48 49 50

000
ASUS43 KMKX 011200
RWRWI

WISCONSIN REGIONAL WEATHER ROUNDUP
NATIONAL WEATHER SERVICE MILWAUKEE/SULLIVAN WI
700 AM CDT SAT AUG 01 2015

NOTE: "FAIR" INDICATES FEW OR NO CLOUDS BELOW 12,000 FEET WITH NO
SIGNIFICANT WEATHER AND/OR OBSTRUCTIONS TO VISIBILITY.

WIZ001-002-006>008-014>016-023>028-011300-
NORTHWEST WISCONSIN

CITY           SKY/WX    TMP DP  RH WIND       PRES   REMARKS
SUPERIOR ARPT  SUNNY     51  49  94 CALM      29.93F
ASHLAND        SUNNY     57  52  83 W5        29.93S
6HR MIN TEMP:  51; 6HR MAX TEMP:  58;

HAYWARD        SUNNY     53  49  86 CALM      29.97S
6HR MIN TEMP:  48; 6HR MAX TEMP:  54;

SIREN          SUNNY     50  48  93 CALM      29.97R
CUMBERLAND     SUNNY     52  50  93 CALM      29.97S
RICE LAKE      MOSUNNY   54  52  94 CALM      29.98F
CHETEK         PTSUNNY   56  54  94 CALM      29.97S
LADYSMITH      SUNNY     56  51  83 CALM      29.98S
EAU CLAIRE     NOT AVBL
MENOMONIE      PTSUNNY   61  58  91 CALM      29.97S
NEW RICHMOND   PTCLDY    60  59  97 CALM      29.97S
OSCEOLA        CLEAR     58  58 100 CALM      29.99S FOG
$$

WIZ003>005-009-010-017-018-011300-
NORTH CENTRAL WISCONSIN

CITY           SKY/WX    TMP DP  RH WIND       PRES   REMARKS
MANITOWISH WTR SUNNY     52  52 100 CALM      29.93S
ARBOR VITAE    SUNNY     57  52  85 NW3       29.93S
WOODRUFF       SUNNY     57  52  85 NW3       29.93S
RHINELANDER    SUNNY     57  51  80 W8        29.95R
6HR MIN TEMP:  50; 6HR MAX TEMP:  57;

EAGLE RIVER    SUNNY     55  53  93 NW5       29.93R
LAND O LAKES   SUNNY     56  52  88 W5        29.93S
PHILLIPS       SUNNY     54  50  88 W3        29.95S
TOMAHAWK       SUNNY     52  50  93 W6        29.95R
MEDFORD        SUNNY     51  50  97 CALM      29.97R
MERRILL        NOT AVBL
$$

WIZ029-030-035-036-043>047-011300-
CENTRAL WISCONSIN

CITY           SKY/WX    TMP DP  RH WIND       PRES   REMARKS
WAUSAU         SUNNY     60  52  74 VRB7      29.94S
6HR MIN TEMP:  57; 6HR MAX TEMP:  63;

MOSINEE        MOSUNNY   59  54  82 W6        29.96S
MARSHFIELD     PTSUNNY   60  52  74 NW6       29.97R
6HR MIN TEMP:  56; 6HR MAX TEMP:  60;

STEVENS POINT  PTSUNNY   58  51  76 W5        29.97R
WAUPACA        SUNNY     62  54  73 W3        29.95R
WAUTOMA        NOT AVBL
WISC RAPIDS    CLOUDY    60  52  74 NW3       29.98R
6HR MIN TEMP:  57; 6HR MAX TEMP:  61;

CAMP DOUGLAS   NOT AVBL
$$

WIZ011>013-019>022-031-037>040-048>050-011300-
NORTHEAST WISCONSIN

CITY           SKY/WX    TMP DP  RH WIND       PRES   REMARKS
ANTIGO         SUNNY     54  51  92 CALM      29.94F
SHAWANO        SUNNY     60  54  79 W5        29.93R
OCONTO         SUNNY     58  57  94 W7        29.89S
STURGEON BAY   SUNNY     61  54  77 SW8       29.92R
6HR MIN TEMP:  57; 6HR MAX TEMP:  63;

GREEN BAY      SUNNY     61  54  77 W7        29.93R
6HR MIN TEMP:  58; 6HR MAX TEMP:  65;

MANITOWOC      NOT AVBL
APPLETON       MOSUNNY   59  52  77 W8        29.95R
CLINTONVILLE     N/A     59  52  77 W7        29.93R
OSHKOSH        SUNNY     62  53  72 W5        29.94R
6HR MIN TEMP:  60; 6HR MAX TEMP:  65;

$$

WIZ032>034-041-042-053>061-011300-
SOUTHWEST WISCONSIN

CITY           SKY/WX    TMP DP  RH WIND       PRES   REMARKS
LA CROSSE      CLOUDY    67  60  78 S3        29.97S
6HR MIN TEMP:  63; 6HR MAX TEMP:  67;

SPARTA         MOSUNNY   54  51  92 CALM      29.99S
VIROQUA        CLOUDY    62  57  86 SW5       30.00S
BOSCOBEL       CLOUDY    62  59  90 SW5       30.00S
6HR MIN TEMP:  58; 6HR MAX TEMP:  62; 6HR PCP:  0.01;

PRAIRIE DU CHI MOSUNNY   60  56  87 CALM      30.00S
PLATTEVILLE    PTSUNNY   61  59  94 CALM      30.01S
$$

WIZ056-057-062-063-064-067-068-011300-
SOUTH CENTRAL WISCONSIN

CITY           SKY/WX    TMP DP  RH WIND       PRES   REMARKS
REEDSBURG      SUNNY     55  53  94 CALM      29.99R
BARABOO/DELLS  SUNNY     58  54  85 CALM      29.98S
LONE ROCK      NOT AVBL
MINERAL POINT  CLOUDY    63  57  82 W3        30.01R
MADISON        MOSUNNY   65  55  70 NW7       29.98R
6HR MIN TEMP:  61; 6HR MAX TEMP:  67;

MIDDLETON      PTSUNNY   64  58  81 W5        30.00R
WATERTOWN      SUNNY     56  56 100 CALM      29.97R
MONROE         PTSUNNY   63  55  77 W10       30.00S
JANESVILLE     MOSUNNY   61  57  88 CALM      29.99R
$$

WIZ051-052-058>065-066-070>072-011300-
SOUTHEAST WISCONSIN

CITY           SKY/WX    TMP DP  RH WIND       PRES   REMARKS
MILWAUKEE      SUNNY     68  51  54 W8        29.96S
6HR MIN TEMP:  66; 6HR MAX TEMP:  70;

WAUKESHA       SUNNY     61  54  77 CALM      29.98S
MILWAUKEE/TIMM SUNNY     61  50  67 W3        29.97S
RACINE         SUNNY     64  52  64 W7        29.98S
6HR MIN TEMP:  62; 6HR MAX TEMP:  66;

BURLINGTON     SUNNY     57  52  83 S3        29.97F
KENOSHA        SUNNY     63  54  72 W6        29.97S
6HR MIN TEMP:  57; 6HR MAX TEMP:  65;

FOND DU LAC    SUNNY     62  53  72 W5        29.95R
6HR MIN TEMP:  59; 6HR MAX TEMP:  62;

SHEBOYGAN      SUNNY     64  54  69 W8        29.94R
6HR MIN TEMP:  59; 6HR MAX TEMP:  65;

WEST BEND      SUNNY     63  50  63 W3        29.96R
JUNEAU         SUNNY     55  52  87 CALM      29.97S
$$

LSZ147-162-011300-
LAKE SUPERIOR

STATION/POSITION TIME  TEMP    WIND        PRES    WAVE
                       AIR SEA DIR/SP/G            HT/PER
                 (UTC) (F)     (DEG/KT/KT) (MB)    (FT/S)
W MID LAKE BUOY  1050   57 54  260/ 12/ 14 1011.2R   1/ 3
DEVILS ISLAND    1100   60     240/ 12/ 13 1012.6R
PORT WING        1140   58     170/  3/  6 1013.5S
SAXON HARBOR     1140   57                 1012.9R
$$

LMZ867-665-643>646-011300-
LAKE MICHIGAN

STATION/POSITION TIME  TEMP    WIND        PRES    WAVE
                       AIR SEA DIR/SP/G            HT/PER
                 (UTC) (F)     (DEG/KT/KT) (MB)    (FT/S)
CHAMBERS ISLAND  1100   63     230/  5/ 10 1011.5S
S GREEN BAY BUOY 1100   62 68  270/ 12/ 14 1013.5
N MID LAKE BUOY  1050   66 68  280/ 12/ 14 1010.5R   2/ 4
NORTHPORT PIER   1100   65     280/  5/  8 1011.2S
SISTER BAY       1029   66     300/ 15/ 16   N/A
ALGOMA LAKESHORE 1112             CALM       N/A
KEWAUNEE LAKESHO 1100   59     300/  5/  6 1011.9S
SHEBOYGAN LAKESH 1100   65     270/ 10/ 12 1013.3F
PORT WASHINGTON  1140   67     280/  5/  9 1014.6R
ATWATER BUOY     1100   65 63  260/ 10/ 14 1015.4R
MILWAUKEE LAKESH 1100   67     280/ 10/ 12   N/A
KENOSHA   LAKESH 1100   65     280/ 10/ 13 1014.6R
$$

TC  - TEMPERATURE IN CELSIUS
VSB - VISIBILITY IN STATUTE MILES
WCI - WIND CHILL INDEX
HX  - HEAT INDEX




USA.gov is the U.S. government's official web portal to all federal, state and local government web resources and services.